Wind_Speed
4 3 6 11 8 9 5 5 7 8 6 6 2 5 9 9 4 8 6 8 14 19 25 25 35 38 41 42 45 44 45 43 40 33 30 26 28 23 20 17 18 25 26 23
5 6 11 9 9 6 9 8 7 7 9 6 8 7 7 6 6 7 10 11 9 14 11 9 23 31 39 43 46 45 44 41 39 36 33 30 28 24 22 21 21 26 25 22
5 10 2 5 13 6 4 2 5 5 7 5 6 9 8 20 5 9 11 13 9 12 16 11 14 30 31 36 42 44 43 41 40 38 32 24 24 19 18 22 25 25 23 20
7 10 5 7 5 5 2 6 4 7 6 5 5 6 7 9 11 14 17 14 8 3 7 16 18 19 30 31 32 37 38 37 36 34 32 31 29 20 26 32 30 26 21 15
8 10 9 8 7 3 7 4 2 1 4 4 7 3 8 8 9 11 9 3 5 7 10 14 16 14 16 20 27 30 31 27 29 30 33 33 29 28 20 28 26 22 18 16
8 7 4 7 6 1 1 5 8 5 3 4 4 2 7 6 7 8 11 10 10 9 10 10 13 25 24 24 25 28 30 27 26 23 26 28 27 21 24 28 25 22 19 15
7 5 6 6 2 7 9 7 4 5 5 5 5 2 7 13 11 15 13 9 3 7 9 14 12 13 24 29 29 26 24 20 20 21 17 15 20 22 26 29 26 23 22 16
3 7 6 6 8 8 4 7 5 4 3 6 6 2 6 6 7 9 8 16 13 10 7 9 13 16 20 25 22 21 21 18 15 12 12 12 16 18 21 23 24 23 16 12
2 4 6 8 4 8 4 2 6 4 0 3 3 6 7 11 13 15 12 12 10 9 7 9 3 11 21 21 22 24 22 19 16 15 11 11 11 12 16 18 15 12 13 12
3 3 2 6 6 5 3 3 3 3 1 2 4 5 4 7 8 6 8 7 6 4 6 4 8 9 15 22 24 27 27 24 19 16 15 14 12 12 13 10 9 8 10 10
4 3 6 3 3 2 8 6 4 3 5 5 2 6 6 4 1 2 3 3 6 3 6 8 3 13 20 22 28 31 26 22 20 18 16 14 13 13 12 10 10 9 8 6
4 2 2 5 6 5 5 4 4 4 8 3 4 6 5 3 2 5 2 6 4 8 9 8 7 17 18 20 24 27 21 22 21 19 17 16 14 12 11 9 8 6 4 3
2 3 4 10 7 8 5 4 2 3 1 2 2 6 2 3 6 5 6 9 6 6 10 5 3 5 14 21 22 24 24 21 19 20 18 15 11 10 8 7 6 4 2 2
5 3 6 5 5 2 6 13 6 4 1 4 5 7 11 11 10 10 7 7 8 9 10 9 7 5 12 17 23 27 25 25 24 23 19 15 12 10 7 5 4 3 3 4
4 1 3 5 6 4 4 10 15 8 6 4 11 12 8 6 5 6 6 8 9 9 11 10 11 6 5 13 20 23 26 26 26 25 20 18 14 10 6 5 4 4 5 6
6 3 3 3 4 7 6 6 9 12 15 7 10 10 7 5 8 13 10 11 13 12 10 9 11 8 7 20 20 26 25 26 29 24 20 16 13 8 7 6 5 5 7 7
2 2 3 4 5 5 4 6 4 6 6 6 6 10 4 8 12 9 8 10 12 13 13 12 11 10 14 8 11 21 16 13 24 26 22 16 11 8 7 8 8 7 8 7
5 4 3 3 3 3 6 5 7 3 4 9 6 11 8 7 5 6 6 11 14 13 15 13 12 15 16 17 23 27 15 24 24 22 22 19 12 10 9 10 9 8 4 4
7 5 1 3 4 5 7 4 2 2 2 9 6 7 9 7 6 12 12 10 8 8 10 12 14 13 7 14 20 23 18 23 20 18 15 15 12 11 8 9 7 5 3 7
5 4 4 2 2 4 5 5 8 1 2 12 11 4 2 6 4 4 9 9 11 21 21 14 10 9 4 10 13 11 14 18 12 14 13 10 11 11 9 10 6 2 5 7
2 1 6 4 4 5 5 5 4 2 3 5 11 9 7 4 3 5 5 8 12 17 22 12 7 7 2 9 19 17 13 10 10 10 12 14 13 12 8 4 1 5 6 9
3 3 4 2 2 8 7 5 4 6 4 2 5 7 7 7 7 4 6 7 7 11 18 22 10 4 1 6 12 15 12 9 11 12 15 14 10 7 4 2 5 7 11 14
1 3 3 5 5 2 4 5 5 1 3 2 3 3 6 8 8 8 7 8 9 10 16 25 13 7 6 6 10 11 11 16 15 15 13 10 6 4 2 5 8 11 13 6
6 2 2 3 2 5 5 4 2 1 4 3 3 3 11 13 10 8 8 7 7 8 9 20 13 12 11 10 11 13 17 17 16 14 12 8 5 1 4 9 12 10 4 14
5 6 4 7 8 7 1 5 6 8 7 7 6 6 9 8 10 8 7 6 9 11 13 16 23 19 17 12 13 15 18 16 14 13 9 5 1 5 6 7 13 13 13 13
5 7 6 11 7 6 5 7 9 7 7 7 7 7 8 9 8 8 8 14 14 15 10 12 19 13 14 14 16 16 14 12 10 12 8 4 3 5 5 17 22 20 17 14
Wind_Direction
286 75 240 244 211 225 239 256 266 267 286 15 286 272 284 276 259 304 260 239 202 206 211 200 194 193 194 194 194 195 196 198 200 200 199 203 211 214 220 224 223 205 203 206
356 269 247 246 253 225 253 257 284 292 322 1 326 300 273 272 277 275 279 279 211 216 205 194 185 182 187 188 194 197 200 200 203 205 207 209 213 217 220 223 205 202 206 203
194 251 300 246 272 276 309 276 296 295 323 355 357 328 335 310 324 304 286 259 242 183 199 180 179 191 188 189 191 196 200 201 204 207 207 204 207 216 212 203 195 190 204 205
241 270 249 312 261 204 268 270 329 331 25 312 56 299 301 287 305 298 290 261 254 173 180 181 186 189 192 195 194 195 201 205 205 206 205 198 198 197 206 190 194 191 203 215
261 307 317 311 266 139 231 260 329 311 354 17 357 36 272 303 315 304 293 162 146 177 173 183 187 170 173 184 192 201 206 208 209 209 212 212 214 215 197 186 185 195 201 202
247 271 227 238 328 202 43 35 20 39 49 24 252 144 290 330 281 308 310 93 122 125 121 104 137 154 166 186 190 200 203 205 206 197 209 214 210 191 182 186 189 191 191 193
319 272 270 187 281 339 62 57 352 355 7 222 306 30 259 302 28 57 15 339 299 124 134 133 146 147 156 166 176 180 183 177 183 190 190 201 213 207 191 198 203 190 185 183
257 326 353 320 174 187 184 145 149 244 260 274 323 297 287 290 306 25 21 29 26 335 141 164 169 168 167 180 183 180 167 155 167 190 207 204 211 206 199 205 204 198 199 208
228 271 319 37 0 130 269 219 182 139 107 32 275 311 327 356 12 8 2 40 3 31 305 192 152 161 177 169 170 167 163 163 178 186 190 191 208 198 175 173 185 203 211 208
248 297 338 315 17 47 62 253 5 12 251 290 301 300 241 341 336 19 357 7 8 16 125 237 199 160 151 173 178 177 176 180 177 177 167 152 146 158 155 145 151 157 159 170
10 80 294 37 26 55 353 337 353 127 144 176 239 275 226 242 205 22 18 345 24 338 160 231 207 166 176 185 187 183 182 173 172 166 158 156 142 147 153 160 159 159 152 161
350 131 326 261 272 193 178 70 76 69 304 255 158 264 253 256 145 280 288 323 343 291 297 186 202 191 186 181 177 182 176 173 169 160 155 143 139 147 155 165 168 170 184 192
316 14 7 340 351 8 19 25 45 228 89 310 80 274 75 321 297 271 264 18 33 3 26 327 263 200 180 175 169 173 177 173 166 161 150 144 162 175 184 177 179 193 235 284
62 120 157 207 236 246 323 329 355 105 31 294 251 275 310 331 326 340 12 41 11 16 21 22 352 267 230 171 168 176 174 174 168 165 154 166 185 184 179 175 185 213 244 286
75 171 202 238 285 333 327 321 323 337 241 237 283 286 282 314 81 21 39 44 30 18 14 359 352 286 195 168 173 178 178 171 167 163 166 173 173 168 169 175 196 237 261 277
354 298 344 298 321 359 335 299 294 292 301 297 284 279 251 122 75 48 29 30 24 5 360 352 340 346 209 190 165 184 160 165 167 163 163 166 162 169 185 187 214 235 259 260
22 69 38 264 358 1 342 268 306 326 350 306 324 325 78 69 60 40 19 20 23 7 356 341 325 302 272 84 163 64 54 160 180 164 163 162 162 177 191 205 219 240 252 251
177 134 147 246 25 244 245 307 284 303 28 357 16 20 41 71 75 52 19 18 4 3 1 344 335 349 56 144 147 146 167 209 198 171 159 155 163 181 202 219 233 254 231 276
174 138 187 193 193 290 308 324 15 19 58 11 5 1 7 338 357 9 357 0 329 321 343 359 5 12 64 137 172 175 166 167 177 167 163 158 168 185 205 217 201 180 240 303
91 89 140 138 196 233 253 303 339 333 84 341 326 319 355 62 52 284 302 331 336 349 356 15 11 25 56 117 155 120 130 158 174 166 162 149 175 189 186 154 166 277 311 303
23 329 200 208 220 274 246 265 318 115 270 333 7 353 2 41 203 260 312 352 3 1 10 8 20 9 17 141 138 137 151 172 175 166 131 136 145 139 150 168 289 323 305 302
210 210 210 165 229 283 339 343 127 200 200 123 34 352 349 331 326 328 337 337 341 7 6 9 342 337 258 171 158 156 163 171 161 151 142 135 124 125 157 285 314 287 291 312
66 120 242 192 224 136 348 65 47 74 354 61 58 350 333 327 325 332 336 328 328 357 5 353 347 300 239 217 196 179 172 164 163 153 141 137 134 121 340 303 302 308 329 355
318 40 255 0 261 317 327 51 53 310 191 190 174 328 315 302 288 289 298 305 304 322 356 346 345 299 249 222 212 203 172 172 172 154 143 135 125 173 323 332 320 313 83 105
223 343 326 288 277 312 243 15 354 328 301 266 260 231 236 260 283 282 274 281 299 311 337 342 340 317 241 220 218 189 179 179 163 139 133 133 117 330 347 25 73 88 95 96
181 233 240 266 272 245 243 291 298 296 285 271 267 261 248 244 261 274 284 290 294 295 307 335 347 311 234 218 200 190 188 171 153 139 134 95 25 323 98 113 99 96 96 83
Height
792 811 823 810 807 801 802 808 807 791 769 771 775 771 760 749 743 742 740 739 740 734 725 730 732 737 742 746 750 754 758 763 768 771 774 778 780 784 786 788 789 791 793 794
809 819 795 790 791 799 800 806 804 785 766 772 775 772 757 748 743 739 736 730 731 730 729 730 732 734 737 739 745 749 753 758 762 766 770 773 777 780 783 785 787 789 790 788
817 797 781 788 789 795 792 795 797 796 779 772 776 783 767 739 739 733 727 720 716 723 724 727 732 731 733 736 740 745 750 753 757 761 766 770 775 777 779 781 784 786 787 789
805 783 786 789 788 780 798 775 780 787 800 819 783 825 781 763 754 735 724 714 713 713 717 716 723 730 729 734 741 745 749 753 756 760 764 766 767 767 769 771 776 781 784 787
806 793 793 794 785 773 792 772 778 782 798 805 803 820 790 765 761 745 722 711 711 711 713 716 719 729 735 737 742 747 750 753 755 758 760 762 765 766 768 771 776 780 782 784
796 777 779 780 768 766 766 781 794 803 813 840 808 810 800 781 763 739 729 717 715 713 716 720 725 726 732 735 740 742 744 748 752 755 758 761 763 766 769 768 773 776 781 785
798 787 769 764 779 773 784 813 848 844 849 845 803 816 805 771 748 742 746 735 718 714 719 721 725 727 729 732 736 742 745 749 753 755 758 760 761 762 762 767 769 774 778 779
822 820 781 763 775 789 787 807 844 845 853 839 806 809 794 759 748 739 734 731 730 729 720 722 722 724 728 732 737 741 747 750 753 755 757 758 760 761 762 767 770 775 778 780
814 807 770 766 764 772 785 804 796 818 821 838 824 794 772 760 752 747 743 738 740 734 733 725 725 727 728 733 738 742 746 749 753 757 759 758 760 761 764 769 772 775 776 779
792 814 783 772 766 772 780 781 811 831 835 837 829 810 809 779 770 764 758 753 745 731 731 733 729 729 732 735 738 742 744 746 751 753 756 758 760 762 764 768 772 774 777 779
797 806 803 784 792 799 803 810 805 817 829 844 844 829 785 770 760 757 755 750 739 734 729 733 731 733 734 734 735 738 742 746 748 751 755 757 761 764 767 769 772 775 777 780
801 814 822 804 785 780 789 801 817 841 832 829 831 823 764 761 756 755 745 742 742 739 733 730 733 733 732 734 737 739 745 745 746 750 753 757 762 765 767 770 772 775 777 780
801 826 842 825 806 798 803 803 807 816 826 823 835 823 770 759 755 748 749 753 746 741 738 733 731 732 731 730 733 738 740 748 750 752 755 759 762 765 768 771 773 775 777 779
804 824 831 845 826 816 819 807 804 816 835 825 819 803 780 771 769 763 761 754 751 744 741 739 736 733 733 729 732 735 739 742 747 752 752 757 761 764 769 771 774 776 778 779
815 827 820 820 815 812 814 812 801 811 812 820 800 792 783 773 775 770 762 755 753 751 746 742 737 730 733 734 734 738 737 745 748 751 753 755 760 764 767 770 773 775 777 777
822 829 820 823 814 816 818 811 809 803 796 797 789 790 771 775 769 769 768 764 761 757 751 746 739 734 728 725 734 727 738 743 745 749 754 758 761 764 767 768 771 773 775 775
828 833 838 840 826 823 833 811 805 808 802 801 804 792 773 783 780 780 778 772 764 758 753 748 741 731 724 741 741 752 749 745 752 744 746 757 760 765 767 768 769 770 771 773
826 833 839 844 831 849 814 799 799 804 804 799 794 790 790 788 785 783 778 775 770 760 752 748 742 733 734 732 739 741 740 744 757 752 749 749 756 762 765 768 768 770 770 771
813 829 838 844 847 828 813 799 804 807 812 805 801 794 790 787 786 784 781 779 777 767 757 752 747 742 740 741 740 736 740 747 754 752 753 753 754 760 764 765 766 769 768 768
815 819 831 842 843 845 814 794 785 789 824 806 803 798 793 790 807 803 788 782 778 766 759 755 751 748 745 746 747 751 749 752 757 755 756 753 757 759 762 765 766 767 767 766
824 828 832 838 840 828 803 794 785 814 826 810 806 805 802 802 800 794 784 781 779 774 767 762 757 752 751 749 750 753 758 761 760 759 749 754 759 762 765 765 765 765 766 764
824 829 835 833 834 833 799 793 808 810 803 801 804 806 805 801 793 788 785 781 778 773 770 765 761 757 755 755 752 752 753 754 754 754 755 758 761 763 765 765 765 765 764 764
827 827 832 825 824 810 808 806 803 803 803 798 798 799 801 800 795 787 784 781 777 773 770 766 763 761 758 756 755 753 752 754 755 757 758 760 762 765 766 765 764 765 765 762
825 819 825 820 811 808 802 802 799 797 796 794 795 793 795 796 792 785 780 776 773 770 767 764 762 760 757 756 755 754 755 756 758 758 760 762 764 765 766 766 765 764 763 763
828 823 824 822 813 806 801 802 803 799 796 794 791 789 787 783 784 780 776 773 769 766 763 762 758 754 753 754 755 755 755 757 758 759 762 764 765 766 767 767 767 767 767 766
822 822 823 811 809 811 806 801 798 796 795 792 790 786 782 782 778 775 771 768 766 763 762 760 756 754 753 753 754 755 756 758 760 759 762 764 765 766 767 768 769 771 771 769